Chelan, Washington, United States (98816)
Lat: 47.84N, Lon: 120.02W
Wx Zone: WAZ041
Local Info
Past Weather Observations for Today

NOTE: This archive is for the closest National Weather Service station to Chelan. Information may differ from the station used for current weather conditions.

Click here for Long-term Archive

Time Weather Temperature Dewpoint Humidity Pressure Winds Precip Visibility
15:55
Mostly Cloudy
54°F / 12°C 46°F / 8°C 77% 29.47 in
(998 mb)
E 5.8 mph
(E 9 kph)
0.00 in
(0.00 mm)
10SM
14:55
Overcast
55°F / 13°C 46°F / 8°C 72% 29.47 in
(998 mb)
S 8.1 mph
(S 13 kph)
0.00 in
(0.00 mm)
10SM
13:55
Overcast
55°F / 13°C 45°F / 7°C 67% 29.5 in
(999 mb)
Calm - 10SM
12:55
Mostly Cloudy
55°F / 13°C 45°F / 7°C 67% 29.53 in
(1000 mb)
Calm 0.00 in
(0.00 mm)
10SM
11:55
Mostly Cloudy
54°F / 12°C 45°F / 7°C 72% 29.56 in
(1001 mb)
Calm 0.00 in
(0.00 mm)
10SM
10:55
Overcast
52°F / 11°C 45°F / 7°C 77% 29.59 in
(1002 mb)
Calm - 10SM
09:55
Overcast
48°F / 9°C 45°F / 7°C 87% 29.62 in
(1003 mb)
NW 5.8 mph
(NW 9 kph)
- 10SM
08:55
Overcast
48°F / 9°C 45°F / 7°C 87% 29.65 in
(1004 mb)
NW 9.2 mph
(NW 15 kph)
- 10SM
07:55
Overcast
48°F / 9°C 45°F / 7°C 87% 29.68 in
(1005 mb)
NW 5.8 mph
(NW 9 kph)
- 10SM
07:05
Overcast
46°F / 8°C 43°F / 6°C 87% 29.71 in
(1006 mb)
WNW 5.8 mph
(WNW 9 kph)
- 10SM
06:55
Overcast
46°F / 8°C 43°F / 6°C 87% 29.71 in
(1006 mb)
NW 3.5 mph
(NW 6 kph)
- 10SM
06:18
Overcast
46°F / 8°C 43°F / 6°C 87% 29.71 in
(1006 mb)
NNW 4.6 mph
(NNW 7 kph)
- 10SM
05:55
Overcast
48°F / 9°C 43°F / 6°C 82% 29.71 in
(1006 mb)
NNW 3.5 mph
(NNW 6 kph)
- 10SM
04:55
Overcast
46°F / 8°C 45°F / 7°C 93% 29.74 in
(1007 mb)
W 5.8 mph
(W 9 kph)
- 10SM
03:55
Overcast
46°F / 8°C 45°F / 7°C 93% 29.8 in
(1009 mb)
WNW 5.8 mph
(WNW 9 kph)
- 10SM
03:23
Overcast
46°F / 8°C 43°F / 6°C 87% 29.8 in
(1009 mb)
NNW 5.8 mph
(NNW 9 kph)
- 10SM
02:55
Overcast
46°F / 8°C 45°F / 7°C 93% 29.83 in
(1010 mb)
NW 5.8 mph
(NW 9 kph)
- 10SM
02:24
Overcast
46°F / 8°C 45°F / 7°C 93% 29.83 in
(1010 mb)
NW 4.6 mph
(NW 7 kph)
- 10SM
02:10
Overcast
46°F / 8°C 45°F / 7°C 93% 29.86 in
(1011 mb)
WNW 4.6 mph
(WNW 7 kph)
- 10SM
01:55
Overcast
46°F / 8°C 45°F / 7°C 93% 29.86 in
(1011 mb)
W 5.8 mph
(W 9 kph)
- 10SM
01:44
Overcast
46°F / 8°C 45°F / 7°C 93% 29.86 in
(1011 mb)
W 6.9 mph
(W 11 kph)
- 9SM
00:55
Overcast
46°F / 8°C 45°F / 7°C 93% 29.89 in
(1012 mb)
WNW 8.1 mph
(WNW 13 kph)
0.01 in
(0.25 mm)
10SM
00:50
Overcast
46°F / 8°C 45°F / 7°C 93% 29.89 in
(1012 mb)
WNW 8.1 mph
(WNW 13 kph)
0.01 in
(0.25 mm)
10SM
00:08
Overcast
Light Rain
46°F / 8°C 45°F / 7°C 93% 29.92 in
(1013 mb)
WNW 8.1 mph
(WNW 13 kph)
0.01 in
(0.25 mm)
9SM
Time Weather Temperature Dewpoint Humidity Pressure Winds Precip Visibility


Weather for websites

WeatherForYou.com, LLC is not responsible for any damages or problems caused by this service. Current weather conditions are obtained from the closest station including government and personal stations which may have varying degrees of accuracy. Weather forecasts are derived from the NOAA NDFD. Like all things, this site belongs to Jesus Christ... He just trusts me to maintain it. If you have any questions or comments email webmaster@weatherforyou.com

Copyright © 2014, WeatherForYou.com LLC. All rights reserved.